Vorticity
13 11 11 12 12 11 10 8 6 5 4 4 4 4 5 7 8 9 8 6 5 5 6 5 5 4 4 4 4 5 5 5 2 7 6 8 8 9 10 9 11 9 10
13 13 12 10 8 7 6 6 4 3 3 4 5 7 9 9 10 9 6 5 6 6 5 4 5 5 5 6 6 6 6 7 5 7 7 7 8 9 10 11 12 9 8
12 9 8 6 6 5 4 4 4 5 6 9 9 10 10 9 8 8 7 7 6 5 5 6 7 8 7 8 8 8 8 8 7 6 10 9 9 10 10 7 14 11 9
11 8 6 5 4 4 5 6 7 10 12 12 11 10 10 9 8 7 6 6 6 7 9 9 8 8 8 8 8 9 9 10 12 10 10 11 10 10 9 9 5 15 8
9 6 5 5 5 6 8 10 12 13 11 10 9 9 9 8 9 9 9 9 9 9 8 8 8 8 7 9 11 11 14 13 14 17 17 14 12 10 11 16 4 11 11
7 5 4 5 7 8 9 10 7 4 3 3 5 6 7 8 8 9 10 10 9 9 8 7 7 9 13 14 14 17 15 18 18 16 17 17 14 11 10 15 13 -4 15
6 5 6 8 7 9 9 7 6 4 0 2 3 6 8 11 12 12 12 11 10 8 8 9 10 14 17 20 21 20 16 16 19 19 17 17 20 13 9 9 6 18 8
6 7 8 7 9 8 7 5 2 0 1 5 7 9 11 12 13 13 12 9 9 9 11 15 17 16 14 12 6 10 11 11 17 23 21 23 33 10 10 8 14 13 7
6 7 7 7 7 6 6 3 0 3 5 5 9 13 13 14 13 13 12 10 11 15 17 18 12 12 11 6 9 11 7 8 21 23 32 37 24 5 17 4 15 13 12
8 8 8 7 6 5 2 1 3 4 4 11 14 13 13 12 13 12 15 16 16 16 17 16 14 14 12 17 17 12 11 21 30 30 22 13 20 15 26 9 9 13 13
0 7 6 5 5 3 2 3 3 8 15 16 14 13 14 16 14 15 17 17 16 19 15 11 9 7 16 15 13 14 19 19 22 17 16 17 13 9 5 15 13 11 14
18 5 4 5 3 3 3 7 13 16 15 14 14 13 14 16 17 19 16 11 10 16 14 8 6 7 14 18 15 15 9 20 12 20 19 8 19 17 13 11 15 13 11
3 3 3 2 3 7 12 15 15 16 16 15 14 13 12 16 18 19 15 13 15 10 12 14 5 12 10 19 17 14 37 4 17 25 25 17 11 14 17 15 11 15 14
3 1 2 5 9 14 15 17 17 17 14 14 16 7 1 7 17 16 15 16 17 12 12 14 11 14 12 16 11 25 2 19 31 22 13 17 18 18 18 18 14 15 20
1 3 4 11 14 14 17 17 16 16 10 9 11 11 11 6 14 13 13 12 15 15 14 14 13 11 16 18 6 19 -3 34 18 5 16 11 7 10 18 19 17 17 12
3 5 15 16 14 17 14 14 9 8 12 10 7 8 12 10 16 14 13 13 14 13 10 14 18 10 16 21 6 20 7 27 16 20 13 16 8 12 14 17 20 9 8
7 21 14 10 14 12 13 10 7 7 5 10 6 4 13 17 15 14 12 12 15 16 9 12 12 11 18 22 4 15 19 23 14 23 16 14 8 9 17 15 8 9 12
22 13 8 11 11 9 9 6 4 6 8 10 9 4 14 16 13 11 12 16 18 14 14 16 21 12 16 14 14 10 22 20 20 13 13 17 15 18 14 11 11 12 16
13 9 9 12 10 8 8 7 6 6 8 9 9 7 15 16 11 10 14 17 16 15 13 17 21 12 19 5 17 11 21 17 17 18 8 17 14 11 13 12 11 17 14
7 10 14 12 12 11 10 8 9 8 5 6 6 10 14 13 9 11 17 16 14 15 12 14 20 13 22 8 12 8 18 18 20 19 22 18 6 11 11 9 11 15 9
9 13 12 12 10 10 10 10 10 6 9 5 5 9 11 10 17 21 18 17 17 18 16 16 14 13 24 10 12 11 18 18 19 15 15 11 7 9 11 8 9 11 12
15 9 7 3 3 5 8 9 11 5 10 8 8 10 11 20 21 16 16 17 18 21 15 19 12 18 13 17 8 19 17 15 13 11 12 14 11 8 13 14 7 9 12
12 5 5 6 4 5 7 9 8 8 8 12 8 9 17 20 15 16 17 19 19 19 17 12 16 17 13 12 24 19 13 11 12 10 13 15 13 10 9 8 8 9 14
6 6 8 9 10 10 12 10 7 6 11 7 9 15 21 16 18 20 21 21 22 16 16 15 15 13 17 12 16 11 12 14 12 11 12 12 12 11 10 10 10 13 16
11 13 14 15 14 14 14 11 7 6 8 10 14 21 16 19 24 24 20 23 23 18 12 16 15 14 13 15 11 10 11 9 8 9 11 13 14 13 13 13 14 17 16
18 21 23 23 23 19 14 10 2 9 10 14 21 17 20 26 23 22 27 25 19 13 14 12 19 24 8 12 8 5 8 8 8 12 15 15 15 15 15 15 18 15 10
Height
3097 3094 3092 3090 3087 3085 3082 3080 3077 3075 3072 3070 3067 3064 3061 3057 3053 3050 3046 3043 3040 3037 3033 3029 3028 3023 3019 3017 3012 3008 3004 3001 2994 2993 2992 2992 2988 2987 2983 2978 2978 2976 2976
3091 3089 3087 3084 3082 3080 3078 3075 3073 3070 3067 3064 3060 3057 3053 3049 3046 3041 3038 3034 3030 3027 3024 3020 3017 3014 3008 3005 3001 2996 2992 2989 2983 2979 2977 2977 2975 2974 2972 2968 2965 2964 2964
3086 3084 3081 3079 3077 3075 3072 3070 3067 3063 3059 3056 3052 3048 3044 3041 3037 3033 3028 3024 3020 3016 3013 3009 3005 3000 2997 2993 2989 2984 2979 2974 2969 2964 2962 2960 2960 2959 2959 2956 2954 2952 2951
3080 3078 3076 3073 3071 3069 3066 3063 3059 3056 3052 3047 3043 3040 3036 3032 3028 3022 3017 3012 3008 3005 3000 2996 2992 2987 2983 2979 2974 2968 2963 2958 2954 2949 2946 2945 2944 2944 2944 2944 2942 2940 2939
3074 3072 3070 3067 3065 3062 3059 3055 3051 3047 3043 3039 3035 3031 3027 3022 3017 3012 3007 3002 2998 2993 2989 2984 2978 2974 2969 2963 2957 2952 2947 2940 2936 2932 2929 2928 2928 2929 2931 2932 2930 2929 2927
3068 3066 3063 3061 3058 3054 3051 3047 3044 3040 3036 3032 3027 3022 3018 3013 3006 3001 2995 2989 2985 2979 2974 2969 2964 2959 2954 2949 2944 2938 2931 2924 2918 2916 2914 2912 2913 2917 2917 2916 2917 2917 2916
3062 3059 3056 3053 3050 3047 3043 3040 3036 3033 3028 3023 3017 3011 3006 3001 2995 2989 2983 2977 2970 2964 2958 2953 2947 2942 2937 2932 2927 2922 2918 2913 2906 2901 2897 2897 2899 2904 2904 2902 2904 2904 2905
3054 3052 3049 3046 3043 3040 3036 3032 3028 3023 3017 3012 3006 3000 2993 2988 2983 2976 2969 2962 2956 2950 2944 2938 2933 2928 2924 2918 2912 2906 2902 2898 2894 2889 2883 2884 2887 2889 2889 2892 2892 2892 2893
3047 3044 3041 3038 3035 3031 3027 3023 3018 3012 3006 2999 2993 2987 2980 2974 2967 2961 2954 2948 2942 2936 2930 2925 2921 2916 2912 2906 2898 2891 2885 2882 2879 2873 2870 2871 2873 2875 2875 2878 2880 2881 2882
3039 3037 3034 3030 3026 3022 3017 3012 3005 2999 2993 2987 2980 2973 2966 2960 2953 2948 2942 2934 2928 2922 2918 2913 2909 2903 2898 2892 2884 2878 2870 2867 2862 2859 2858 2859 2860 2862 2864 2867 2869 2870 2871
3029 3027 3025 3022 3017 3012 3006 3001 2995 2988 2981 2975 2967 2960 2954 2949 2943 2936 2930 2922 2915 2908 2904 2900 2896 2890 2884 2878 2872 2866 2859 2854 2850 2848 2848 2848 2848 2850 2855 2857 2859 2861 2862
3022 3019 3017 3013 3008 3003 2997 2991 2983 2975 2968 2961 2954 2948 2944 2938 2932 2925 2918 2911 2905 2897 2892 2888 2883 2878 2873 2867 2861 2856 2850 2845 2841 2839 2839 2839 2839 2842 2846 2848 2850 2851 2853
3014 3012 3008 3003 2998 2992 2985 2978 2970 2964 2956 2949 2943 2936 2931 2926 2921 2914 2907 2901 2894 2887 2881 2877 2872 2867 2862 2857 2852 2847 2841 2837 2834 2831 2831 2831 2834 2836 2837 2839 2840 2842 2844
3005 3003 2998 2992 2986 2980 2973 2966 2959 2953 2946 2940 2934 2927 2921 2915 2909 2901 2895 2889 2883 2877 2871 2866 2861 2857 2852 2846 2842 2838 2833 2829 2825 2825 2825 2826 2827 2828 2829 2831 2833 2835 2837
2997 2992 2987 2980 2974 2968 2963 2956 2950 2946 2939 2931 2926 2917 2910 2904 2899 2891 2883 2877 2871 2866 2860 2855 2851 2847 2842 2838 2834 2830 2826 2821 2818 2818 2819 2820 2821 2822 2823 2824 2826 2829 2831
2986 2981 2976 2969 2963 2958 2951 2946 2944 2936 2931 2925 2918 2909 2902 2894 2887 2881 2875 2868 2862 2857 2851 2846 2842 2838 2833 2829 2826 2822 2818 2815 2813 2812 2813 2814 2815 2817 2818 2820 2822 2824 2826
2975 2970 2964 2959 2953 2948 2942 2936 2929 2928 2924 2917 2909 2901 2893 2885 2879 2873 2866 2858 2852 2848 2843 2838 2834 2830 2825 2822 2819 2815 2812 2809 2807 2806 2807 2808 2810 2813 2814 2816 2818 2820 2821
2964 2959 2954 2949 2944 2939 2933 2927 2921 2914 2907 2905 2904 2893 2883 2875 2868 2862 2856 2848 2842 2838 2833 2828 2824 2821 2818 2815 2812 2809 2806 2804 2802 2802 2803 2805 2807 2809 2811 2813 2815 2816 2817
2953 2949 2944 2939 2935 2929 2923 2918 2912 2905 2899 2892 2886 2882 2874 2865 2857 2852 2846 2839 2833 2828 2824 2820 2816 2814 2811 2809 2806 2803 2801 2800 2800 2800 2801 2802 2804 2807 2809 2810 2811 2813 2813
2943 2939 2934 2929 2924 2920 2914 2908 2902 2896 2889 2883 2876 2868 2861 2853 2846 2840 2835 2829 2823 2819 2815 2812 2809 2807 2805 2803 2801 2800 2798 2797 2797 2798 2798 2800 2802 2804 2806 2807 2808 2809 2810
2932 2928 2924 2919 2914 2909 2903 2898 2892 2885 2879 2872 2865 2858 2851 2843 2835 2829 2824 2819 2814 2810 2807 2804 2802 2801 2799 2798 2797 2796 2795 2794 2795 2795 2796 2798 2800 2802 2803 2805 2806 2806 2807
2921 2918 2913 2909 2904 2899 2893 2888 2881 2875 2869 2861 2854 2847 2840 2833 2825 2819 2814 2809 2806 2802 2800 2798 2797 2795 2794 2794 2793 2792 2792 2792 2793 2794 2794 2795 2797 2799 2800 2802 2802 2803 2803
2910 2906 2902 2897 2892 2888 2883 2877 2871 2865 2858 2850 2843 2835 2828 2821 2815 2809 2805 2801 2798 2795 2794 2793 2791 2791 2790 2790 2790 2789 2790 2791 2791 2792 2793 2793 2795 2796 2797 2798 2798 2799 2799
2899 2895 2890 2885 2880 2875 2870 2865 2860 2854 2847 2839 2832 2825 2817 2811 2805 2800 2796 2792 2790 2789 2788 2788 2787 2787 2787 2787 2787 2788 2788 2789 2790 2791 2791 2792 2792 2793 2793 2794 2795 2795 2795
2887 2882 2877 2872 2867 2863 2858 2854 2849 2843 2836 2829 2822 2814 2807 2801 2795 2791 2788 2786 2784 2784 2784 2784 2783 2784 2785 2785 2786 2787 2787 2788 2789 2788 2788 2788 2789 2789 2789 2790 2791 2791 2792
2873 2868 2863 2859 2855 2851 2847 2843 2838 2832 2825 2818 2811 2805 2798 2792 2788 2784 2782 2781 2781 2781 2781 2781 2781 2781 2783 2784 2785 2785 2786 2787 2787 2786 2786 2785 2785 2785 2786 2786 2787 2788 2789